[[{"header":{"parameterUnit":"m.s-1","parameterCategory":1,"la1":30.2991,"la2":30.254,"lo1":-89.0895,"lo2":-89.0444,"dy":0.0017,"dx":0.0017,"nx":28,"ny":28,"refTime":"2023-10-11T09:00:00:Z","depth":0,"parameterNumber":2,"parameterNumberName":"U-component_of_WINDS"},"data":[0,0,0,0,0,0,0,0,0,0,0,0,0,0,0,0,0,0,0,0,0,0,0,0,0,0,0,0,0,0,0,0,0,0,0,0,0,0,0,0,0,0,0,0,0,0,0,0,0,0,0,0,0,0,0,0,0,0,-1.3896,-1.3896,0,-1.3904,-1.3904,-1.3904,-1.3851,-1.3849,-1.3848,-1.3846,-1.3855,-1.3856,-1.3858,0,0,0,0,0,0,0,0,0,0,0,0,0,-1.3834,-1.3835,-1.3896,-1.3896,-1.3896,-1.3904,-1.3904,-1.3904,-1.3851,-1.3849,-1.3847,-1.3845,-1.3854,-1.3856,-1.3858,0,0,0,0,0,0,0,0,0,0,0,0,0,-1.3853,-1.3836,-1.3896,-1.387,-1.3868,-1.3904,-1.3904,-1.3904,-1.3851,-1.3849,-1.3847,-1.3845,-1.3854,-1.3856,-1.3858,-1.3919,0,0,-1.3866,-1.3867,0,0,0,0,0,0,0,0,-1.3852,-1.3856,-1.3874,-1.3872,-1.387,-1.3874,-1.3885,-1.3909,-1.3852,-1.3858,-1.3846,-1.3843,-1.3863,-1.3865,-1.3871,-1.392,-1.392,-1.3866,-1.3868,-1.3869,-1.387,0,0,0,0,0,0,0,-1.3851,-1.3855,-1.3899,-1.3874,-1.3872,-1.3859,-1.3859,-1.389,-1.3873,-1.3857,-1.3853,-1.3855,-1.3861,-1.3869,-1.3871,-1.392,-1.3866,-1.3868,-1.387,-1.3871,-1.4019,-1.4021,0,0,0,0,0,0,-1.3853,-1.3854,-1.3899,-1.3899,-1.3855,-1.3862,-1.3862,-1.3875,-1.3873,-1.387,-1.3857,-1.3852,-1.3866,-1.3868,-1.3871,-1.3942,-1.3869,-1.3871,-1.3873,-1.4017,-1.402,-1.4022,0,0,0,0,0,0,-1.3852,-1.3858,-1.3898,-1.3876,-1.388,-1.3865,-1.388,-1.3876,-1.3884,-1.3872,-1.3869,-1.3867,-1.3864,-1.3868,-1.3908,-1.3942,-1.3872,-1.3874,-1.4014,-1.4018,-1.4021,-1.4086,0,0,0,0,0,0,-1.385,-1.3858,-1.3881,-1.3877,-1.3881,-1.3935,-1.3882,-1.3878,-1.3888,-1.3882,-1.3882,-1.3879,-1.3863,-1.3904,-1.391,-1.3944,-1.3876,-1.4011,-1.4015,-1.402,-1.408,-1.4091,-1.41,0,0,0,0,0,-1.3848,-1.3898,-1.3882,-1.3888,-1.391,-1.3937,-1.394,-1.392,-1.3891,-1.3914,-1.3907,-1.3879,-1.3937,-1.3909,-1.3915,-1.395,-1.4008,-1.4014,-1.4019,-1.4076,-1.4089,-1.41,0,0,0,0,0,0,-1.3907,-1.3897,-1.3879,-1.3929,-1.3935,-1.3928,-1.3957,-1.3934,-1.3948,-1.3942,-1.3916,-1.3916,-1.3961,-1.3959,-1.3928,-1.4009,-1.3968,-1.3975,-1.4009,-1.4021,-1.4031,-1.403,-1.3878,0,0,0,0,0,-1.3926,-1.3949,-1.3939,-1.3984,-1.3988,-1.3972,-1.3983,-1.3967,-1.3971,-1.3973,-1.3969,-1.3974,-1.3994,-1.4007,-1.4024,-1.4079,-1.4079,-1.4107,-1.4117,-1.4125,-1.4131,-1.4161,-1.4173,-1.404,-1.404,-1.404,0,0,-1.3965,-1.3962,-1.3978,-1.3996,-1.3998,-1.4023,-1.3974,-1.4002,-1.402,-1.3978,-1.4015,-1.4012,-1.4017,-1.4065,-1.4086,-1.4065,-1.4168,-1.4132,-1.4138,-1.4141,-1.4168,-1.418,-1.4192,-1.4044,-1.4043,-1.4043,0,0,-1.4048,-1.4049,-1.4087,-1.409,-1.4093,-1.4082,-1.4092,-1.4089,-1.4085,-1.4122,-1.4091,-1.4112,-1.4146,-1.415,-1.4157,-1.4242,-1.4217,-1.4248,-1.43,-1.4329,-1.434,-1.4349,-1.438,-1.4391,-1.4254,-1.4255,-1.4255,0,-1.4096,-1.4132,-1.4109,-1.4139,-1.4148,-1.411,-1.4148,-1.4152,-1.4162,-1.4169,-1.4145,-1.4187,-1.4187,-1.4236,-1.4256,-1.4263,-1.4273,-1.4248,-1.434,-1.4349,-1.4357,-1.4386,-1.4398,-1.4258,-1.4258,-1.4257,-1.4257,0,-1.4191,-1.4217,-1.4247,-1.4257,-1.4269,-1.4303,-1.4285,-1.43,-1.4282,-1.4274,-1.4313,-1.4311,-1.4328,-1.4338,-1.4321,-1.4384,-1.4371,-1.4344,-1.4302,-1.4374,-1.4401,-1.4412,-1.4264,-1.4262,-1.4261,-1.426,0,0,-1.4313,-1.4309,-1.4321,-1.4325,-1.4326,-1.4345,-1.4377,-1.4393,-1.4407,-1.4414,-1.4441,-1.447,-1.4445,-1.4453,-1.4436,-1.4461,-1.453,-1.4431,-1.4431,-1.445,-1.46,-1.4621,-1.4634,-1.4513,-1.4515,-1.4516,-1.4599,0,-1.4395,-1.445,-1.443,-1.4487,-1.451,-1.4474,-1.4502,-1.4506,-1.4499,-1.4518,-1.4509,-1.4531,-1.4496,-1.45,-1.4524,-1.4516,-1.4559,-1.451,-1.4538,-1.4539,-1.4539,-1.4648,-1.467,-1.4749,-1.461,-1.4612,-1.4613,0,-1.4499,-1.4511,-1.457,-1.4567,-1.4576,-1.4601,-1.4614,-1.4632,-1.4636,-1.4629,-1.4637,-1.4615,-1.4647,-1.4604,-1.4648,-1.4615,-1.4624,-1.4623,-1.4625,-1.4628,-1.4581,-1.4654,-1.4773,-1.4786,-1.4629,-1.4628,-1.4627,0,-1.4583,-1.4613,-1.4652,-1.4657,-1.4654,-1.4673,-1.4673,-1.4674,-1.4685,-1.4696,-1.4703,-1.4718,-1.4726,-1.4738,-1.472,-1.4691,-1.4766,-1.4722,-1.4762,-1.4762,-1.478,-1.4779,-1.4903,-1.4785,-1.4785,-1.4785,-1.4785,0,-1.4677,-1.4715,-1.469,-1.4714,-1.4755,-1.4731,-1.4773,-1.4768,-1.477,-1.4793,-1.4762,-1.4784,-1.4759,-1.4779,-1.4765,-1.4804,-1.4807,-1.4803,-1.4799,-1.4806,-1.4807,-1.4813,-1.4807,-1.4788,-1.4787,-1.4787,-1.4786,0,-1.4778,-1.4763,-1.4803,-1.4797,-1.4797,-1.4827,-1.4822,-1.4845,-1.4835,-1.4864,-1.487,-1.4855,-1.4876,-1.486,-1.4881,-1.4872,-1.4923,-1.491,-1.4922,-1.4919,-1.4959,-1.4956,-1.5092,-1.5109,-1.498,-1.4981,-1.4982,0,-1.484,-1.4868,-1.4865,-1.4878,-1.488,-1.4901,-1.4912,-1.489,-1.4902,-1.4908,-1.493,-1.4949,-1.4963,-1.4999,-1.499,-1.5006,-1.4995,-1.5042,-1.4997,-1.5004,-1.4997,-1.4996,-1.4998,-1.5051,-1.5052,-1.5054,-1.5055,0,-1.4951,-1.4942,-1.4959,-1.4973,-1.4987,-1.4997,-1.5005,-1.5017,-1.4994,-1.501,-1.5032,-1.5043,-1.5064,-1.5084,-1.5097,-1.5096,-1.5072,-1.5069,-1.5079,-1.5087,-1.5092,-1.5091,-1.4947,-1.5066,-1.5065,-1.5064,-1.5063,-1.5063,-1.5035,-1.5058,-1.506,-1.508,-1.5083,-1.5091,-1.5112,-1.5105,-1.5122,-1.5138,-1.5124,-1.515,-1.5152,-1.5167,-1.517,-1.519,-1.5171,-1.5186,-1.5189,-1.5194,-1.52,-1.5088,-1.5192,-1.5192,-1.5192,-1.5191,-1.5191,0,-1.5146,-1.5145,-1.5163,-1.5175,-1.519,-1.5166,-1.5173,-1.5188,-1.5211,-1.5215,-1.523,-1.5255,-1.5273,-1.5266,-1.5282,-1.53,-1.5289,-1.5305,-1.5304,-1.5304,-1.5216,-1.5206,-1.5313,-1.5313,-1.5313,-1.5313,-1.5313,-1.5313,-1.5205,-1.5244,-1.5235,-1.5275,-1.5273,-1.5299,-1.5305,-1.5312,-1.5316,-1.5345,-1.536,-1.5355,-1.5355,-1.5371,-1.5387,-1.5384,-1.5392,-1.5412,-1.5405,-1.5323,-1.5311,-1.5299,-1.529,-1.5413,-1.5414,-1.5492,-1.5493,-1.5494]},{"header":{"parameterUnit":"m.s-1","parameterCategory":1,"la1":30.2991,"la2":30.254,"lo1":-89.0895,"lo2":-89.0444,"dy":0.0017,"dx":0.0017,"nx":28,"ny":28,"refTime":"2023-10-11T09:00:00:Z","depth":0,"parameterNumber":3,"parameterNumberName":"V-component_of_WINDS"},"data":[0,0,0,0,0,0,0,0,0,0,0,0,0,0,0,0,0,0,0,0,0,0,0,0,0,0,0,0,0,0,0,0,0,0,0,0,0,0,0,0,0,0,0,0,0,0,0,0,0,0,0,0,0,0,0,0,0,0,-2.4018,-2.4018,0,-2.4087,-2.4088,-2.4089,-2.4091,-2.409,-2.4089,-2.4088,-2.4159,-2.4162,-2.4164,0,0,0,0,0,0,0,0,0,0,0,0,0,-2.3885,-2.3888,-2.4018,-2.4018,-2.4019,-2.4087,-2.4088,-2.4089,-2.4091,-2.409,-2.4089,-2.4088,-2.4158,-2.4161,-2.4165,0,0,0,0,0,0,0,0,0,0,0,0,0,-2.3948,-2.3888,-2.4017,-2.4028,-2.403,-2.4087,-2.4088,-2.4089,-2.4091,-2.409,-2.4088,-2.4087,-2.4157,-2.4161,-2.4165,-2.4216,0,0,-2.4177,-2.4179,0,0,0,0,0,0,0,0,-2.3944,-2.3952,-2.4026,-2.4028,-2.403,-2.4079,-2.4068,-2.4132,-2.4091,-2.4068,-2.4088,-2.4087,-2.4133,-2.4139,-2.4155,-2.4219,-2.4222,-2.4178,-2.418,-2.4182,-2.4183,0,0,0,0,0,0,0,-2.394,-2.3949,-2.4045,-2.4027,-2.4029,-2.403,-2.4037,-2.408,-2.4107,-2.407,-2.407,-2.4078,-2.4134,-2.4151,-2.4157,-2.4223,-2.4178,-2.4181,-2.4184,-2.4185,-2.4332,-2.4334,0,0,0,0,0,0,-2.3933,-2.3946,-2.4043,-2.4047,-2.3983,-2.4033,-2.4041,-2.4064,-2.4107,-2.4112,-2.4079,-2.4078,-2.4145,-2.4152,-2.4159,-2.4222,-2.4182,-2.4186,-2.4188,-2.4331,-2.4333,-2.4334,0,0,0,0,0,0,-2.393,-2.3942,-2.404,-2.3997,-2.4009,-2.4037,-2.4063,-2.4067,-2.4084,-2.4114,-2.4119,-2.4092,-2.4144,-2.4154,-2.4202,-2.4224,-2.4188,-2.4191,-2.4329,-2.4331,-2.4333,-2.4346,0,0,0,0,0,0,-2.3927,-2.3941,-2.3961,-2.3997,-2.4012,-2.4081,-2.4064,-2.4069,-2.4091,-2.409,-2.4127,-2.4132,-2.4144,-2.4196,-2.4206,-2.4229,-2.4194,-2.4327,-2.433,-2.4333,-2.4344,-2.4348,-2.4352,0,0,0,0,0,-2.3922,-2.3961,-2.3962,-2.3973,-2.4037,-2.4083,-2.4091,-2.4104,-2.4092,-2.4112,-2.4132,-2.4131,-2.422,-2.4201,-2.4212,-2.4237,-2.4326,-2.4329,-2.4332,-2.4342,-2.4348,-2.4352,0,0,0,0,0,0,-2.3926,-2.3966,-2.3967,-2.4019,-2.4048,-2.4083,-2.4108,-2.411,-2.4142,-2.414,-2.4155,-2.4164,-2.4211,-2.4229,-2.4207,-2.4288,-2.4272,-2.4277,-2.4275,-2.428,-2.4285,-2.4279,-2.4198,0,0,0,0,0,-2.3933,-2.3968,-2.4001,-2.4044,-2.4058,-2.4081,-2.4101,-2.4109,-2.4139,-2.4151,-2.4174,-2.4203,-2.4238,-2.426,-2.4294,-2.4347,-2.4355,-2.4369,-2.4373,-2.4377,-2.4381,-2.4411,-2.4417,-2.4345,-2.4345,-2.4345,0,0,-2.3948,-2.3974,-2.3995,-2.4045,-2.4068,-2.4103,-2.4091,-2.4128,-2.4154,-2.4157,-2.4203,-2.4221,-2.4255,-2.4305,-2.4329,-2.4321,-2.4403,-2.4381,-2.4384,-2.4386,-2.4415,-2.4422,-2.4428,-2.4347,-2.4347,-2.4347,0,0,-2.3993,-2.4016,-2.4055,-2.4078,-2.4113,-2.4128,-2.4137,-2.4172,-2.4184,-2.4232,-2.4234,-2.4265,-2.4325,-2.4349,-2.4368,-2.4423,-2.4423,-2.4433,-2.4455,-2.4484,-2.449,-2.4495,-2.4514,-2.4521,-2.4438,-2.4438,-2.4438,0,-2.4007,-2.406,-2.4074,-2.4112,-2.4134,-2.4138,-2.4177,-2.4199,-2.4243,-2.4258,-2.4249,-2.4324,-2.4346,-2.4402,-2.4416,-2.4432,-2.4443,-2.4429,-2.4488,-2.4493,-2.4498,-2.4516,-2.4523,-2.4439,-2.4439,-2.4439,-2.4438,0,-2.4075,-2.4112,-2.4139,-2.4181,-2.4206,-2.4244,-2.4264,-2.4288,-2.4294,-2.431,-2.4358,-2.4385,-2.4425,-2.4439,-2.4445,-2.4496,-2.449,-2.4484,-2.4468,-2.4506,-2.4523,-2.453,-2.444,-2.444,-2.444,-2.4439,0,0,-2.4124,-2.4175,-2.4184,-2.4204,-2.4243,-2.4271,-2.4309,-2.4348,-2.4368,-2.4398,-2.443,-2.4481,-2.4476,-2.4498,-2.4507,-2.4532,-2.4573,-2.4523,-2.4524,-2.4531,-2.4631,-2.4635,-2.4643,-2.4574,-2.4575,-2.4576,-2.4628,0,-2.4173,-2.4241,-2.4255,-2.4314,-2.4348,-2.4353,-2.4386,-2.4414,-2.443,-2.4461,-2.4479,-2.4514,-2.4505,-2.4518,-2.4543,-2.4563,-2.4593,-2.4559,-2.4604,-2.4605,-2.4595,-2.4652,-2.4656,-2.4704,-2.4635,-2.4636,-2.4637,0,-2.4239,-2.4271,-2.4334,-2.4368,-2.4383,-2.4413,-2.4449,-2.4479,-2.451,-2.452,-2.4545,-2.4552,-2.4592,-2.4574,-2.4629,-2.4606,-2.4625,-2.4637,-2.4639,-2.4644,-2.4623,-2.4658,-2.4719,-2.4726,-2.4648,-2.4647,-2.4646,0,-2.4268,-2.4327,-2.4372,-2.4389,-2.443,-2.4451,-2.4469,-2.4499,-2.4521,-2.4553,-2.4568,-2.4604,-2.4624,-2.4652,-2.4668,-2.4653,-2.4722,-2.4705,-2.4731,-2.4731,-2.4745,-2.4744,-2.481,-2.4758,-2.4758,-2.4757,-2.4757,0,-2.4321,-2.4359,-2.4386,-2.4413,-2.4456,-2.4472,-2.4513,-2.4531,-2.4558,-2.4589,-2.4596,-2.4625,-2.4644,-2.4676,-2.4689,-2.4733,-2.4742,-2.4751,-2.4754,-2.475,-2.4749,-2.4762,-2.4759,-2.4759,-2.4759,-2.4759,-2.4758,0,-2.4361,-2.438,-2.4429,-2.4465,-2.4474,-2.4504,-2.4535,-2.4562,-2.4578,-2.4617,-2.4627,-2.4653,-2.4691,-2.471,-2.4757,-2.4765,-2.4815,-2.4816,-2.4804,-2.4805,-2.483,-2.4827,-2.4907,-2.4918,-2.4859,-2.4859,-2.486,0,-2.4393,-2.4422,-2.4461,-2.4482,-2.4501,-2.4535,-2.4558,-2.4575,-2.4598,-2.4637,-2.4659,-2.4697,-2.4729,-2.4789,-2.4812,-2.4848,-2.4849,-2.4875,-2.4855,-2.485,-2.485,-2.4848,-2.4851,-2.4878,-2.4879,-2.488,-2.488,0,-2.4448,-2.4456,-2.4489,-2.4525,-2.4552,-2.4582,-2.461,-2.4628,-2.4649,-2.4675,-2.4714,-2.4739,-2.4787,-2.4825,-2.4863,-2.4881,-2.4884,-2.4886,-2.4894,-2.489,-2.4882,-2.4887,-2.4813,-2.4884,-2.4884,-2.4883,-2.4883,-2.4883,-2.4484,-2.4511,-2.4542,-2.4578,-2.4602,-2.4629,-2.4656,-2.4676,-2.4708,-2.4749,-2.4757,-2.4798,-2.4829,-2.488,-2.49,-2.4933,-2.4927,-2.4939,-2.4942,-2.4944,-2.4945,-2.4878,-2.494,-2.494,-2.494,-2.494,-2.494,0,-2.4539,-2.456,-2.4593,-2.4634,-2.4662,-2.4663,-2.4695,-2.4719,-2.4755,-2.4784,-2.4814,-2.4859,-2.4896,-2.4922,-2.4959,-2.4981,-2.4983,-2.499,-2.4988,-2.4993,-2.4948,-2.4937,-2.4987,-2.4987,-2.4987,-2.4987,-2.4987,-2.4987,-2.4571,-2.4616,-2.4628,-2.4684,-2.4704,-2.4745,-2.4763,-2.4788,-2.4811,-2.4861,-2.4891,-2.4908,-2.4936,-2.4975,-2.5009,-2.5016,-2.5029,-2.5036,-2.5043,-2.5001,-2.4996,-2.4991,-2.4981,-2.5039,-2.5039,-2.5085,-2.5085,-2.5085]}]]